Weather History for Kansas City, MO

Change the Weather History Date:

Saturday, June 22, 2013

  Actual Average Record
Temperature  
Mean Temperature 86 °F -  
Max Temperature 93 °F 82 °F 93 °F (2013)
Min Temperature 78 °F 65 °F 61 °F (2001)
Cooling Degree Days 20    
Growing Degree Days 36 (Base 50)    
Moisture  
Dew Point 68 °F    
Average Humidity 58    
Maximum Humidity 69    
Minimum Humidity 44    
Precipitation  
Precipitation 0.00 in - - ()
Sea Level Pressure  
Sea Level Pressure 29.91 in    
Wind  
Wind Speed 13 mph (South)    
Max Wind Speed 22 mph    
Max Gust Speed 32 mph    
Visibility 10 miles    
Events      
Averages and records for this station are not official NWS values.
T = Trace of Precipitation, MM = Missing Value Source: NWS Daily Summary

Daily Weather History Graph

Daily Weather History Graph

Search for Another Location

Airport:

Trip Planner

Search our weather history database for the weather conditions in past years. The results will help you decide how hot, cold, wet, or windy it might be!

Date:

Astronomy

Jun. 22, 2013 Rise Set
Actual Time 5:52 AM CDT 8:48 PM CDT
Civil Twilight 5:20 AM CDT 9:20 PM CDT
Nautical Twilight 4:39 AM CDT 10:01 PM CDT
Astronomical Twilight 3:52 AM CDT 10:47 PM CDT
Moon 8:04 PM CDT (6/22) 5:05 AM CDT (6/22)
Length of Visible Light 15h 59m
Length of Day
14h 55m
Waxing Gibbous, 99% of the Moon is Illuminated
Jun 22
Waxing Gibbous
Jun 23
Full
Jun 29
Last Quarter
Jul 8
New
Jul 15
First Quarter

Hourly Weather History & Observations

Time (CDT) Temp. Heat Index Dew Point Humidity Pressure Visibility Wind Dir Wind Speed Gust Speed Precip Events Conditions
12:54 AM 82.0 °F 85.5 °F 69.1 °F 65% 29.92 in 10.0 mi SSW 12.7 mph - N/A   Clear
1:54 AM 80.1 °F 82.7 °F 68.0 °F 67% 29.91 in 10.0 mi South 13.8 mph - N/A   Clear
2:54 AM 81.0 °F 83.3 °F 66.9 °F 62% 29.90 in 10.0 mi SSW 16.1 mph 24.2 mph N/A   Clear
3:54 AM 80.1 °F 82.3 °F 66.9 °F 64% 29.90 in 10.0 mi SSW 12.7 mph - N/A   Clear
4:54 AM 79.0 °F - 66.9 °F 66% 29.92 in 10.0 mi SSW 10.4 mph - N/A   Clear
5:54 AM 78.1 °F - 66.9 °F 68% 29.92 in 10.0 mi South 11.5 mph - N/A   Clear
6:54 AM 78.1 °F - 66.9 °F 68% 29.93 in 10.0 mi South 6.9 mph - N/A   Clear
7:54 AM 80.1 °F 82.9 °F 69.1 °F 69% 29.96 in 10.0 mi SSW 4.6 mph - N/A   Clear
8:54 AM 82.0 °F 85.5 °F 69.1 °F 65% 29.95 in 10.0 mi South 11.5 mph - N/A   Clear
9:54 AM 84.0 °F 88.4 °F 70.0 °F 63% 29.95 in 10.0 mi South 13.8 mph 18.4 mph N/A   Clear
10:54 AM 86.0 °F 90.7 °F 70.0 °F 59% 29.95 in 10.0 mi SSW 15.0 mph - N/A   Clear
11:54 AM 89.1 °F 93.7 °F 69.1 °F 52% 29.96 in 10.0 mi SSW 10.4 mph 21.9 mph N/A   Clear
12:54 PM 91.0 °F 97.6 °F 71.1 °F 52% 29.96 in 10.0 mi South 12.7 mph 21.9 mph N/A   Clear
1:54 PM 91.9 °F 98.4 °F 71.1 °F 50% 29.94 in 10.0 mi South 13.8 mph 23.0 mph N/A   Clear
2:54 PM 93.0 °F 100.1 °F 71.1 °F 49% 29.91 in 10.0 mi South 17.3 mph 23.0 mph N/A   Partly Cloudy
3:54 PM 93.0 °F 97.9 °F 69.1 °F 45% 29.87 in 10.0 mi South 18.4 mph - N/A   Clear
4:54 PM 91.9 °F 95.4 °F 66.9 °F 44% 29.82 in 10.0 mi SSW 20.7 mph 29.9 mph N/A   Clear
5:54 PM 91.0 °F 94.3 °F 66.9 °F 45% 29.83 in 10.0 mi South 21.9 mph 32.2 mph N/A   Clear
6:54 PM 89.1 °F 91.0 °F 64.9 °F 45% 29.85 in 10.0 mi South 13.8 mph 20.7 mph N/A   Clear
7:54 PM 87.1 °F 89.9 °F 66.9 °F 51% 29.86 in 10.0 mi South 12.7 mph 18.4 mph N/A   Clear
8:54 PM 84.9 °F 88.2 °F 68.0 °F 57% 29.86 in 10.0 mi South 11.5 mph 19.6 mph N/A   Clear
9:54 PM 84.9 °F 88.8 °F 69.1 °F 59% 29.88 in 10.0 mi South 11.5 mph - N/A   Clear
10:54 PM 82.9 °F 85.8 °F 68.0 °F 60% 29.90 in 10.0 mi South 12.7 mph - N/A   Clear
11:54 PM 82.9 °F 85.8 °F 68.0 °F 60% 29.90 in 10.0 mi South 12.7 mph - N/A   Clear